Temp
63 54 49 55 59 59 57 55 53 59 65 62 60 60 68 73 74 72 72 74 76 77 76 76 74 73 72 70 69 68 67 66 66 67 66 67 68 70 71 77 78 77 75 75
56 51 59 62 60 57 55 51 49 55 61 60 56 52 55 71 72 74 73 74 74 76 74 73 72 71 69 68 66 65 65 64 64 65 65 65 64 66 68 70 71 76 76 74
51 57 64 60 55 52 52 50 48 47 54 56 53 47 52 65 72 74 76 77 76 72 70 70 70 68 67 65 64 64 63 62 62 63 63 64 64 65 66 67 69 72 76 75
54 62 58 57 53 54 44 55 52 48 43 35 51 33 48 59 64 69 73 73 70 69 70 69 67 66 66 63 63 62 61 61 62 60 58 56 56 56 59 63 68 72 75 75
50 54 52 50 53 57 48 48 46 43 39 40 41 37 46 58 56 62 66 67 66 65 66 65 65 65 65 63 60 59 58 58 57 57 55 52 51 54 57 60 62 66 70 74
51 55 51 51 54 55 49 42 43 43 39 28 40 39 39 49 58 64 65 63 63 64 64 65 64 63 61 60 58 56 54 53 54 54 51 49 47 49 51 53 56 61 67 70
49 48 54 54 48 53 46 35 29 27 28 30 47 40 41 54 55 64 56 59 62 62 61 61 59 58 57 56 55 53 52 51 53 51 48 47 47 47 48 50 53 56 60 65
40 38 49 53 49 46 44 37 32 23 27 34 45 32 39 51 57 56 54 56 60 59 59 58 58 56 56 55 53 51 50 48 49 48 46 46 46 47 49 50 53 55 59 65
42 42 56 55 54 52 40 33 44 35 35 30 36 43 48 51 52 52 51 54 56 57 56 56 57 56 55 53 52 49 47 46 46 45 44 43 45 46 47 49 52 56 60 65
45 38 49 54 55 54 48 51 32 32 25 25 38 39 36 45 47 52 51 52 54 55 55 55 55 54 53 52 51 49 46 44 44 44 43 43 43 46 47 49 51 58 63 68
47 46 43 49 47 47 48 44 39 36 39 29 30 31 40 39 43 48 52 53 53 53 53 53 54 54 51 51 49 47 45 42 40 41 42 42 42 43 45 46 48 49 53 68
51 46 38 43 55 56 53 47 41 32 30 34 33 33 44 42 47 54 54 54 54 52 51 51 52 51 49 47 47 45 43 41 39 39 41 40 40 41 43 43 45 48 48 54
50 42 34 35 45 51 47 49 50 45 43 35 31 35 44 50 54 54 52 52 51 50 48 48 48 46 46 45 44 43 41 40 39 38 38 38 38 38 39 41 42 45 45 48
49 45 39 32 35 46 42 47 49 45 33 36 38 39 44 48 50 49 50 50 48 46 45 44 43 43 43 42 42 42 40 40 38 37 36 36 36 37 37 39 40 41 43 43
48 37 43 45 46 46 45 45 47 43 43 36 41 43 42 45 45 46 47 47 44 42 42 41 40 39 39 39 39 41 40 38 38 36 34 34 36 37 36 36 37 38 39 40
46 35 41 38 45 45 41 45 46 45 46 45 45 43 45 43 43 41 41 41 39 39 38 38 38 38 36 36 37 39 38 37 36 35 34 35 35 35 34 34 34 34 35 36
41 38 36 32 42 40 33 41 44 45 48 45 38 39 44 36 35 34 36 37 35 35 34 34 35 35 34 34 36 36 36 37 34 33 34 34 34 33 33 33 32 31 31 33
40 39 38 34 36 24 38 45 44 39 39 41 41 41 39 36 34 34 35 34 32 33 32 33 33 34 33 34 34 35 36 35 33 33 33 33 33 33 33 33 32 30 30 29
48 41 34 30 30 36 39 39 32 31 31 36 36 39 38 36 34 30 33 33 31 31 32 31 32 33 33 32 34 33 34 34 34 32 32 32 33 32 33 32 32 32 31 29
46 46 36 33 27 25 31 42 46 40 27 35 34 33 35 36 28 25 30 32 31 32 32 32 32 32 32 32 34 33 33 32 31 32 32 32 33 32 32 32 32 32 32 32
34 36 32 32 31 28 36 43 44 26 25 32 32 30 34 29 29 28 31 30 31 32 32 33 33 32 32 33 33 32 33 31 33 34 33 33 33 33 32 32 32 32 32 32
34 32 31 35 31 25 39 41 32 31 34 32 31 31 28 29 28 28 28 28 29 30 32 33 31 31 35 38 37 34 33 32 34 34 34 32 32 32 32 30 30 31 31 30
30 32 31 29 28 33 36 32 35 37 33 31 30 31 31 28 27 28 26 27 27 29 30 33 35 35 36 37 37 34 36 38 36 35 34 34 32 31 31 29 27 27 28 28
40 43 33 32 32 32 33 35 36 36 33 33 33 32 30 26 27 26 26 27 27 28 31 35 34 32 31 33 34 35 38 40 39 35 35 35 34 31 30 31 29 27 26 25
43 43 35 30 32 33 34 34 34 33 34 33 33 32 30 29 28 28 28 27 27 28 29 31 30 29 29 30 31 34 36 37 36 35 33 34 34 34 30 27 27 27 26 27
44 35 34 34 37 36 32 34 35 32 31 33 33 32 33 31 29 29 28 29 28 27 28 27 27 26 26 27 27 29 33 34 33 32 32 31 32 32 32 32 28 30 30 30
MSLP
1007.86 1007.92 1006.70 1006.88 1006.58 1006.30 1005.90 1005.32 1004.52 1003.31 1002.79 1002.28 1001.20 1001.41 999.23 998.78 998.73 998.64 999.52 999.59 999.92 1000.61 1001.88 1003.33 1004.51 1005.28 1006.08 1006.86 1007.30 1007.65 1007.74 1007.89 1007.87 1007.47 1007.21 1006.88 1006.41 1005.83 1005.18 1004.77 1004.44 1004.13 1004.34 1004.81
1007.44 1005.73 1006.34 1006.31 1006.26 1006.23 1006.26 1005.90 1005.40 1005.19 1004.46 1003.95 1002.70 1002.24 1001.66 999.02 998.43 998.07 998.81 999.09 999.66 1000.53 1002.19 1003.78 1004.97 1005.97 1006.85 1007.32 1007.78 1008.06 1008.25 1008.30 1008.38 1008.08 1007.77 1007.46 1007.18 1006.61 1005.94 1005.18 1004.47 1003.84 1003.46 1003.67
1006.20 1005.56 1005.71 1005.58 1006.09 1006.58 1006.46 1006.26 1006.82 1006.51 1006.13 1005.54 1004.57 1003.63 1001.79 999.88 998.62 998.12 997.94 998.55 999.12 1000.53 1002.36 1004.06 1005.45 1006.77 1007.34 1007.58 1008.11 1008.42 1008.64 1008.88 1008.83 1008.53 1008.19 1007.71 1007.23 1006.57 1005.72 1005.02 1004.14 1003.46 1002.65 1002.76
1005.73 1005.48 1005.52 1005.38 1005.31 1006.61 1006.79 1007.70 1007.83 1007.91 1008.10 1007.21 1006.83 1004.05 1002.27 1000.50 998.68 997.98 997.77 998.72 999.81 1001.51 1003.17 1004.67 1006.20 1007.41 1007.63 1008.08 1008.70 1009.05 1009.15 1009.02 1008.83 1008.98 1008.90 1008.76 1008.19 1007.43 1006.73 1005.64 1004.35 1002.92 1001.97 1001.67
1005.04 1005.92 1006.16 1005.97 1005.64 1006.29 1007.37 1009.27 1009.53 1009.70 1009.23 1008.42 1006.44 1005.84 1001.52 1000.47 998.94 998.49 998.54 999.86 1001.73 1003.18 1004.43 1005.67 1007.18 1007.81 1007.99 1008.64 1009.23 1009.58 1009.84 1009.70 1009.60 1009.43 1009.64 1009.53 1009.02 1008.18 1007.13 1006.06 1004.61 1003.25 1002.01 1000.56
1006.22 1007.36 1007.54 1006.98 1007.06 1007.48 1008.99 1010.27 1010.25 1010.28 1009.82 1008.18 1005.58 1005.93 1002.52 1001.20 999.05 998.10 999.35 1001.28 1003.34 1004.56 1005.55 1006.92 1007.58 1008.03 1008.76 1009.31 1009.77 1010.26 1010.32 1010.35 1010.30 1010.13 1010.17 1010.04 1009.37 1008.35 1007.31 1006.37 1005.02 1003.44 1001.58 1000.41
1006.44 1006.63 1006.86 1007.36 1007.49 1007.72 1009.22 1010.61 1010.55 1010.01 1009.03 1005.90 1005.30 1005.50 1003.94 1002.07 1001.17 998.84 1001.60 1003.58 1004.49 1005.25 1006.10 1007.69 1008.24 1008.69 1009.46 1009.89 1010.28 1010.64 1010.55 1010.65 1010.92 1010.58 1010.55 1010.17 1009.39 1008.39 1007.25 1006.20 1005.02 1003.59 1001.65 1000.76
1005.77 1005.05 1005.42 1006.26 1006.79 1007.17 1008.24 1009.77 1009.45 1008.73 1007.85 1006.37 1005.50 1005.52 1004.40 1003.79 1002.76 1002.48 1004.22 1004.98 1005.48 1005.91 1007.10 1008.22 1008.81 1009.45 1010.04 1010.54 1010.74 1011.00 1010.92 1011.35 1011.50 1010.92 1010.51 1009.97 1009.15 1008.04 1006.73 1005.57 1004.38 1002.97 1001.24 1000.86
1005.19 1004.54 1004.29 1005.00 1006.01 1006.86 1007.93 1008.84 1008.28 1008.95 1008.46 1007.44 1005.89 1005.14 1004.95 1004.27 1003.58 1004.84 1005.93 1006.68 1006.73 1006.79 1008.19 1008.91 1009.24 1009.87 1010.52 1011.07 1011.26 1011.61 1011.96 1012.44 1011.99 1011.27 1010.66 1009.72 1008.62 1007.45 1006.33 1005.12 1003.81 1001.92 1000.53 999.78
1005.97 1005.29 1004.89 1005.01 1005.69 1006.08 1006.28 1007.11 1008.44 1009.15 1008.15 1006.77 1005.01 1005.02 1005.23 1004.89 1005.09 1005.61 1006.66 1007.55 1007.94 1008.56 1008.68 1009.38 1009.97 1010.53 1011.34 1011.73 1012.02 1012.14 1012.72 1013.01 1012.15 1011.41 1010.79 1009.55 1008.42 1007.23 1006.12 1004.60 1002.87 1000.70 999.21 998.21
1006.08 1005.40 1005.33 1005.57 1004.85 1004.25 1005.16 1005.73 1007.62 1008.09 1007.26 1006.87 1006.13 1006.69 1006.59 1006.41 1006.41 1006.43 1006.72 1007.38 1007.88 1008.71 1010.16 1010.68 1010.66 1010.95 1011.61 1012.48 1012.71 1012.82 1012.91 1012.97 1012.27 1011.73 1010.76 1009.36 1008.43 1007.03 1005.95 1004.27 1002.90 1001.56 1000.10 997.53
1005.48 1005.36 1005.27 1004.97 1004.16 1004.38 1004.43 1005.23 1006.76 1007.33 1007.13 1006.96 1007.14 1007.29 1008.00 1008.30 1007.56 1006.89 1006.96 1007.93 1008.97 1009.93 1010.95 1011.45 1011.63 1011.79 1012.52 1013.17 1013.36 1013.36 1013.39 1012.95 1012.79 1012.25 1010.75 1009.55 1008.68 1007.32 1006.28 1004.72 1003.61 1002.27 1000.99 998.96
1005.56 1005.72 1005.56 1005.53 1005.23 1004.47 1004.44 1004.78 1005.21 1006.19 1006.39 1006.60 1007.01 1007.38 1008.17 1007.95 1007.26 1007.67 1008.26 1008.94 1010.15 1011.40 1012.42 1012.94 1012.87 1013.42 1014.05 1013.99 1013.98 1013.95 1013.78 1013.45 1013.19 1012.50 1011.14 1010.18 1009.08 1007.89 1006.83 1005.38 1004.21 1002.93 1001.75 1000.24
1005.93 1005.78 1005.62 1005.37 1005.45 1004.43 1004.13 1004.37 1004.80 1005.42 1006.23 1006.25 1006.62 1007.25 1008.23 1008.30 1008.28 1009.13 1009.87 1010.60 1011.77 1012.93 1013.72 1014.25 1014.43 1014.87 1014.92 1015.02 1015.21 1014.34 1014.36 1014.14 1013.66 1012.86 1011.94 1010.98 1009.97 1008.69 1007.78 1006.60 1005.28 1004.07 1002.92 1001.84
1006.36 1006.29 1005.94 1005.72 1005.48 1005.10 1004.63 1004.60 1004.77 1005.20 1005.68 1006.18 1006.78 1007.36 1008.79 1009.57 1010.17 1011.01 1011.54 1012.16 1013.18 1014.03 1014.81 1015.46 1015.80 1015.93 1016.25 1016.63 1015.56 1015.18 1015.05 1014.62 1014.15 1013.42 1012.79 1011.86 1010.71 1009.53 1008.56 1007.78 1006.50 1005.45 1004.01 1003.33
1007.09 1007.02 1006.79 1006.45 1005.98 1005.83 1005.64 1005.45 1005.52 1005.66 1005.98 1006.43 1007.17 1008.32 1010.29 1011.64 1012.34 1012.94 1013.28 1014.06 1015.07 1015.91 1016.48 1017.24 1017.25 1017.56 1017.86 1016.97 1016.30 1016.04 1015.75 1015.36 1014.84 1014.15 1013.42 1012.53 1011.37 1010.16 1009.52 1008.95 1007.66 1006.62 1005.72 1004.58
1007.30 1007.41 1007.26 1006.65 1006.35 1006.57 1006.59 1006.42 1006.37 1006.58 1006.77 1007.40 1008.30 1010.21 1011.49 1013.13 1014.46 1015.47 1016.05 1016.59 1017.27 1018.05 1018.35 1018.63 1018.82 1018.70 1018.31 1017.81 1017.38 1016.91 1016.47 1016.07 1015.49 1014.98 1014.18 1013.23 1012.21 1011.18 1010.81 1009.86 1008.90 1008.40 1007.66 1006.87
1007.17 1007.30 1007.36 1006.95 1007.29 1007.34 1007.59 1008.25 1008.46 1008.99 1009.90 1010.42 1010.80 1011.90 1013.37 1015.01 1016.56 1017.62 1018.15 1018.55 1019.10 1019.35 1019.61 1019.70 1019.64 1019.36 1019.04 1018.73 1018.23 1017.79 1017.24 1016.73 1016.30 1015.68 1014.96 1013.91 1013.01 1012.53 1011.80 1011.01 1010.60 1009.97 1009.45 1008.72
1007.29 1007.38 1007.49 1007.54 1007.67 1007.97 1008.47 1009.46 1010.51 1010.99 1012.23 1013.12 1013.38 1013.85 1014.88 1016.11 1017.44 1018.91 1019.57 1020.00 1020.26 1020.26 1020.23 1020.40 1020.41 1020.12 1019.78 1019.38 1018.90 1018.46 1017.99 1017.44 1016.98 1016.22 1015.60 1014.80 1014.45 1013.71 1012.99 1012.31 1011.88 1011.37 1010.81 1010.35
1007.51 1007.49 1007.91 1008.11 1008.25 1008.62 1010.13 1010.46 1011.07 1012.30 1013.52 1014.78 1015.43 1015.80 1016.03 1016.72 1017.72 1019.65 1020.45 1020.73 1020.87 1020.89 1020.85 1020.86 1020.82 1020.54 1020.09 1019.66 1019.32 1018.96 1018.44 1018.10 1017.55 1017.08 1016.32 1016.18 1015.52 1014.82 1014.07 1013.44 1012.84 1012.29 1011.81 1011.52
1007.99 1008.19 1008.34 1008.58 1009.02 1010.68 1011.35 1011.49 1012.25 1013.60 1015.58 1016.08 1016.76 1017.04 1016.49 1017.76 1018.96 1020.40 1021.03 1021.39 1021.37 1021.26 1021.18 1021.14 1020.92 1020.52 1020.31 1019.98 1019.77 1019.27 1018.81 1018.59 1018.31 1017.60 1017.46 1017.23 1016.69 1015.94 1015.38 1014.69 1014.00 1013.60 1013.12 1012.75
1007.85 1008.45 1008.87 1009.30 1010.21 1011.80 1012.75 1012.72 1013.77 1015.26 1015.98 1016.95 1017.68 1018.07 1018.56 1019.33 1020.32 1021.02 1021.53 1021.79 1021.79 1021.57 1021.37 1021.26 1021.06 1020.90 1020.82 1020.40 1019.80 1019.28 1018.86 1018.78 1018.34 1018.20 1018.02 1017.98 1017.60 1017.10 1016.60 1016.16 1015.63 1015.11 1014.47 1014.03
1008.72 1009.46 1009.75 1011.36 1012.38 1013.60 1014.30 1014.81 1015.55 1015.93 1016.74 1017.78 1018.44 1019.06 1019.61 1020.32 1021.03 1021.53 1021.98 1022.29 1022.42 1022.17 1021.90 1021.71 1021.28 1021.34 1021.37 1021.07 1020.54 1019.90 1019.30 1018.75 1018.66 1018.55 1018.46 1018.30 1018.28 1017.93 1017.68 1017.34 1017.09 1016.62 1016.14 1015.65
1008.71 1009.42 1010.46 1011.80 1013.43 1014.38 1015.22 1015.90 1016.38 1016.94 1017.71 1018.41 1019.07 1019.70 1020.35 1020.99 1021.59 1022.05 1022.51 1022.81 1022.86 1022.77 1022.47 1022.16 1022.08 1022.26 1022.29 1021.97 1021.50 1020.98 1020.25 1019.45 1019.22 1019.30 1019.05 1018.75 1018.57 1018.69 1018.74 1018.40 1018.34 1018.21 1017.79 1017.42
1008.11 1009.20 1010.81 1012.53 1013.87 1014.95 1015.72 1016.51 1017.23 1017.83 1018.46 1018.96 1019.55 1020.19 1020.80 1021.35 1021.93 1022.37 1022.78 1023.14 1023.39 1023.58 1023.56 1023.44 1023.43 1023.44 1023.41 1023.27 1022.82 1022.16 1021.45 1020.91 1020.25 1020.03 1020.00 1019.65 1019.44 1019.29 1019.38 1019.59 1019.51 1019.33 1019.27 1019.01
1008.95 1009.95 1010.73 1011.35 1012.65 1013.97 1015.61 1016.76 1017.55 1018.09 1018.72 1019.21 1019.64 1020.36 1021.07 1021.67 1022.21 1022.69 1023.12 1023.55 1023.98 1024.34 1024.49 1024.53 1024.62 1024.76 1024.79 1024.61 1024.17 1023.51 1022.81 1022.23 1021.59 1021.21 1020.95 1020.84 1020.52 1020.26 1020.03 1019.81 1019.99 1020.10 1019.94 1019.65
Wind_Speed
17 16 18 20 21 25 27 27 30 28 27 30 24 23 20 18 20 13 16 14 11 10 15 13 10 9 7 8 8 10 9 9 9 7 7 7 7 6 5 9 12 9 11 15
18 24 22 22 23 23 24 27 25 25 26 25 20 20 28 19 20 18 17 17 13 11 14 12 10 9 6 6 9 9 10 11 9 8 9 8 8 9 10 11 11 13 13 16
22 22 22 23 21 22 26 22 22 24 23 27 19 17 24 29 21 19 18 15 16 15 14 11 8 8 6 8 8 9 10 11 10 11 9 9 9 10 10 11 11 13 16 13
21 23 21 26 21 15 18 20 23 21 14 12 10 9 21 27 21 24 18 11 16 15 13 11 9 7 6 10 10 10 11 12 11 13 11 14 11 12 11 14 13 12 14 15
23 16 13 20 22 17 17 13 13 16 18 15 22 12 16 25 26 20 12 15 16 14 11 10 8 8 11 11 10 11 12 13 14 13 12 10 13 11 11 13 19 18 16 17
16 12 9 14 14 19 8 6 10 13 11 11 22 15 13 13 12 16 17 20 15 13 12 9 10 11 11 11 10 11 12 14 14 12 13 14 16 16 13 14 14 14 15 12
16 21 20 12 15 4 11 1 4 7 8 11 8 13 17 9 20 15 23 16 14 12 12 9 11 12 11 12 12 11 13 14 14 14 14 15 15 16 18 16 14 18 16 11
10 9 21 15 20 11 18 11 5 5 4 6 4 5 4 5 14 24 20 7 13 14 11 11 11 11 12 12 13 14 15 15 15 15 16 15 15 10 12 15 14 14 16 13
6 9 3 13 18 14 6 12 20 14 12 6 7 6 4 6 20 17 13 8 11 14 11 10 11 11 12 13 13 13 14 15 15 16 15 16 14 14 13 17 16 17 20 15
3 7 2 15 15 19 16 7 6 6 5 5 6 11 1 12 15 15 16 11 11 11 12 11 11 11 11 12 12 12 12 15 16 17 16 13 16 14 14 13 15 15 16 18
7 6 3 5 13 16 16 15 5 5 8 4 5 2 13 13 15 9 11 11 13 13 12 11 11 12 13 12 12 12 13 15 16 16 17 16 16 16 15 13 16 18 20 13
20 4 6 12 10 4 6 8 5 4 2 2 2 2 9 6 7 5 8 11 13 14 13 13 13 14 14 13 14 14 14 16 16 16 16 18 16 16 16 15 16 16 16 17
9 6 7 3 8 9 10 12 11 8 7 6 3 2 10 12 8 14 16 13 14 13 13 13 14 14 13 14 13 13 14 15 16 16 17 17 18 17 18 18 17 16 16 16
3 8 10 6 6 6 12 12 8 6 2 6 6 7 7 2 11 14 13 12 14 12 13 13 13 13 13 14 13 14 14 14 15 16 16 16 17 17 16 17 17 16 15 15
3 5 9 8 2 3 4 5 6 8 8 8 8 8 13 14 13 12 11 11 12 12 12 13 13 13 14 13 13 13 13 14 15 15 15 15 16 16 17 17 17 16 15 14
4 2 7 10 9 6 8 7 8 9 10 11 10 4 15 13 13 12 14 13 12 11 12 12 12 13 13 14 14 13 14 14 13 14 15 15 16 17 18 16 17 17 17 17
7 5 3 10 7 2 7 6 8 7 6 8 6 12 9 12 11 11 9 9 9 9 10 10 11 12 13 12 13 13 13 13 13 13 15 16 15 17 16 17 18 18 18 16
4 5 3 1 5 5 10 8 4 4 11 11 9 10 10 10 10 9 10 8 7 8 9 10 10 11 13 11 13 12 12 13 13 13 14 16 16 15 15 16 16 16 15 17
6 5 4 3 8 7 8 7 3 2 6 8 7 7 9 12 13 10 8 9 8 8 8 7 9 10 7 10 11 10 12 12 13 14 15 15 15 15 14 15 15 13 14 15
7 7 4 5 6 6 7 5 8 5 5 7 6 6 6 8 5 6 8 8 8 8 7 8 6 6 8 8 7 10 11 12 13 14 15 14 13 15 15 13 14 11 10 12
7 7 8 7 6 4 1 4 1 4 5 7 5 6 1 4 7 10 7 8 7 8 8 6 7 8 10 9 7 6 7 9 8 11 12 14 15 14 15 15 13 13 12 13
7 6 6 7 8 5 8 3 3 5 7 9 6 9 12 12 11 10 9 8 9 9 9 9 8 9 8 9 9 11 5 2 4 6 10 11 14 12 13 16 15 15 14 14
2 2 3 5 4 5 8 10 5 5 9 8 8 8 9 10 9 9 9 9 7 9 8 8 8 11 11 12 13 13 14 8 9 8 9 9 10 12 12 14 14 12 13 12
4 6 4 6 6 6 7 8 8 9 10 9 10 10 10 10 8 9 7 6 7 8 9 10 11 13 12 12 14 13 14 14 11 12 12 9 9 8 10 9 10 10 11 11
2 7 9 5 8 9 6 8 10 11 10 11 11 11 11 10 9 9 8 9 7 7 7 9 10 10 12 13 14 14 15 13 12 11 11 11 10 10 7 9 8 8 10 13
3 3 4 1 15 2 12 10 12 12 11 11 12 12 11 10 10 9 8 8 7 7 8 8 10 10 11 12 12 14 14 14 12 11 9 10 9 9 9 9 5 15 16 20
Wind_Direction
222 233 240 251 250 260 268 270 280 282 287 298 293 312 252 230 249 208 211 228 215 193 118 110 87 83 46 41 27 12 4 358 350 331 327 314 303 302 259 262 242 246 201 199
246 245 250 256 267 277 278 273 274 272 286 281 315 307 295 259 263 217 222 222 205 170 126 108 99 74 62 37 32 9 0 358 346 333 335 318 303 295 294 297 300 261 233 205
246 265 278 247 253 265 270 267 278 280 302 303 303 279 276 280 262 258 229 229 189 135 118 110 83 62 42 54 31 9 1 351 343 335 327 322 313 304 273 271 274 270 229 212
263 278 271 274 237 250 273 259 270 281 285 271 323 285 271 279 268 236 222 194 116 104 96 84 65 49 33 43 31 10 358 348 347 346 338 327 310 294 290 293 292 272 238 214
246 266 271 266 273 277 267 344 300 277 272 285 266 262 267 251 253 252 145 120 98 85 83 75 60 37 43 34 20 15 1 351 346 343 338 325 305 296 293 290 290 282 278 222
271 299 262 266 279 269 146 309 302 276 260 244 252 238 278 288 251 155 137 101 109 110 86 64 52 41 31 26 19 14 359 348 341 336 329 312 300 294 287 284 286 283 283 257
250 235 236 246 270 191 164 148 246 222 214 249 242 236 250 319 353 146 98 133 121 96 80 53 39 32 23 19 14 4 359 347 335 333 322 308 296 290 283 280 273 275 276 287
275 256 223 207 225 210 200 193 223 247 250 280 173 248 224 31 86 64 83 47 92 87 76 58 46 34 18 13 13 8 359 341 336 334 324 312 300 288 284 276 267 266 266 269
262 250 274 189 214 195 194 215 235 277 285 278 202 209 204 177 103 107 113 113 78 75 63 52 42 35 24 15 13 12 3 342 332 330 324 317 307 305 298 292 274 260 257 256
258 273 244 226 198 204 208 172 205 207 262 256 235 203 69 175 141 130 125 99 72 63 50 40 36 36 31 19 11 11 5 347 337 333 328 322 316 316 306 304 310 309 244 246
202 238 308 143 218 230 206 221 191 274 244 267 319 80 36 46 54 78 93 68 59 47 38 29 28 35 35 17 9 7 358 357 347 338 332 334 331 329 325 336 335 334 322 248
213 236 239 235 233 264 244 231 184 248 313 229 355 2 113 109 166 145 98 71 66 49 32 24 21 24 23 14 1 7 359 358 351 339 339 344 339 339 333 349 341 334 326 330
142 235 238 262 253 222 217 224 220 210 217 269 296 299 170 228 157 56 66 61 62 42 29 21 20 18 11 9 2 3 1 356 354 345 348 348 350 349 346 349 348 349 346 349
177 235 224 247 308 316 215 236 235 229 219 307 298 77 143 309 33 59 57 51 55 38 28 20 14 11 9 6 356 3 360 357 354 352 351 352 351 356 351 353 355 354 357 4
195 246 248 250 224 313 315 282 242 254 269 260 294 319 57 37 50 51 55 50 45 33 23 17 10 9 5 357 359 2 2 1 356 357 354 356 354 1 4 359 2 359 12 15
171 246 245 251 245 255 275 266 270 280 285 288 284 289 72 53 52 45 36 45 39 25 20 13 12 10 1 1 360 3 4 5 360 359 359 359 4 7 8 3 11 10 13 22
178 211 213 242 213 273 273 282 280 302 319 324 271 55 47 64 57 41 43 45 43 36 26 18 12 14 7 4 359 6 7 5 8 2 3 7 9 15 9 11 17 18 14 14
211 190 191 247 134 219 89 64 25 2 53 24 31 36 70 100 90 64 39 52 47 35 35 25 19 15 16 9 8 12 11 13 11 10 9 11 12 14 13 18 21 23 22 25
220 200 215 195 221 117 156 72 84 55 82 25 1 6 99 126 116 80 64 62 51 41 36 45 25 14 17 18 13 16 16 18 14 17 13 12 11 12 15 18 19 25 31 34
211 227 232 199 252 229 101 56 106 133 168 39 23 340 317 176 232 93 66 57 55 50 44 41 27 16 16 11 10 15 29 23 22 19 22 14 12 17 17 16 15 15 23 33
182 203 217 225 235 100 230 13 42 234 74 71 34 16 293 99 60 100 93 69 49 48 46 49 30 34 24 10 356 5 24 31 20 28 32 24 18 24 21 20 17 19 24 32
190 196 206 243 222 186 10 227 288 87 95 93 77 78 88 100 102 99 81 62 40 29 51 39 41 38 30 17 15 17 23 341 12 29 35 38 31 28 27 25 23 19 25 26
163 46 65 8 52 90 63 85 98 83 106 102 107 100 103 101 98 89 82 63 40 31 41 46 50 46 30 25 20 19 6 42 31 33 35 37 45 35 33 34 28 25 23 25
142 176 88 189 125 112 101 96 103 101 110 110 104 101 101 104 99 92 86 77 59 37 37 38 43 41 34 23 23 17 14 11 36 32 17 31 36 56 36 34 38 33 30 26
111 148 126 84 115 120 129 127 122 117 113 110 112 111 114 119 117 111 95 80 67 52 43 45 40 39 31 28 19 18 12 17 19 29 30 17 21 23 75 61 41 50 48 47
79 119 190 336 158 55 137 143 136 129 126 128 119 112 106 104 99 93 86 85 83 70 55 50 46 37 32 27 21 11 14 13 19 17 22 22 17 20 21 22 73 61 65 60